Home   Weather   St Helens   Past weeks

Flag for United Kingdom Past Weather in St Helens, England, United Kingdom — Yesterday and Last 2 Weeks

Now
48 °F

Passing clouds.


Feels Like: 46 °F
Forecast: 47 / 60 °F
Wind: 6 mph from Southwest

Location: Liverpool Airport

Current Time: Apr 29, 2017 at 3:02:53 am

Latest Report: Apr 29, 2017 at 2:20 am


Visibility: N/A

Pressure: 29.98 "Hg

Humidity: 76%

Dew Point: 41 °F

Location of St HelensLocation

Past Weather in St Helens — Graph

°F

St Helens Temperature Yesterday

Maximum temperature yesterday: 54 °F (at 11:50 am)
Minimum temperature yesterday: 45 °F (at 4:50 am)
Average temperature yesterday: 49 °F

High & Low Weather Summary for the Past Weeks

 TemperatureHumidityPressure
High57 °F (Apr 20, 12:50 pm)100% (Apr 14, 8:50 am)30.63 "Hg (Apr 14, 8:50 am)
Low36 °F (Apr 25, 5:50 am)34% (Apr 24, 6:20 pm)29.89 "Hg (Apr 25, 2:20 am)
Average48 °F75%30.23 "Hg
* Reported Apr 14 1:20 am — Apr 29 1:20 am, St Helens, Weather by CustomWeather, © 2017

Note: Actual official high and low records may vary slightly from our data, if they occured in-between our weather recording intervals... More about our weather records

Advertising

St Helens Weather History for the Previous 24 Hours

Scroll right to see more
 ConditionsComfort  
Time TempWeatherWind HumidityBarometerVisibility
1:20 am
Sat, Apr 29
46 °FPassing clouds.5 mph87%29.98 "HgN/A
12:50 am46 °FPassing clouds.5 mph82%29.98 "HgN/A
12:20 am48 °FPassing clouds.3 mph82%29.98 "HgN/A
11:50 pm
Fri, Apr 28
48 °FPassing clouds.2 mph76%29.98 "HgN/A
11:20 pm46 °FPassing clouds.3 mph87%30.01 "HgN/A
10:50 pm48 °FPassing clouds.2 mph82%30.01 "HgN/A
10:20 pm48 °FPassing clouds.5 mph76%30.01 "HgN/A
9:50 pm48 °FPassing clouds.6 mph76%30.01 "HgN/A
9:20 pm48 °FPassing clouds.7 mph76%30.01 "HgN/A
8:50 pm48 °FPassing clouds.7 mph76%30.01 "HgN/A
8:20 pm48 °FPartly sunny.7 mph76%30.01 "HgN/A
7:50 pm48 °FPartly sunny.8 mph76%30.01 "HgN/A
6:50 pm50 °FPartly sunny.9 mph76%30.01 "HgN/A
6:20 pm50 °FBroken clouds.9 mph76%30.01 "HgN/A
5:50 pm50 °FBroken clouds.10 mph82%30.01 "HgN/A
5:20 pm50 °FBroken clouds.12 mph82%30.01 "HgN/A
4:50 pm50 °FBroken clouds.13 mph82%30.01 "HgN/A
4:20 pm52 °FScattered clouds.12 mph77%30.01 "HgN/A
3:50 pm54 °FScattered clouds.10 mph72%30.01 "HgN/A
3:20 pm52 °FScattered clouds.9 mph77%30.01 "HgN/A
2:50 pm52 °FScattered clouds.3 mph72%30.01 "HgN/A
2:20 pm52 °FPartly sunny.5 mph72%30.01 "HgN/A
1:50 pm52 °FScattered clouds.6 mph72%30.01 "HgN/A
12:50 pm52 °FScattered showers. Scattered clouds.3 mph67%30.01 "HgN/A
12:20 pm52 °FScattered showers. Scattered clouds.5 mph62%30.04 "HgN/A
11:50 am54 °FScattered clouds.5 mph58%30.04 "HgN/A
11:20 am50 °FPartly sunny.3 mph67%30.04 "HgN/A
10:50 am50 °FPartly sunny.3 mph62%30.04 "HgN/A
10:20 am50 °FPartly sunny.3 mph71%30.04 "HgN/A
9:50 am48 °FPartly sunny.3 mph71%30.04 "HgN/A
9:20 am48 °FPartly sunny.3 mph71%30.04 "HgN/A
8:50 am48 °FBroken clouds.3 mph71%30.04 "HgN/A
8:20 am48 °FBroken clouds.5 mph76%30.04 "HgN/A
7:50 am48 °FBroken clouds.5 mph76%30.04 "HgN/A
7:20 am46 °FBroken clouds.3 mph82%30.04 "HgN/A
6:50 am46 °FBroken clouds.3 mph82%30.04 "HgN/A
6:20 am45 °FPartly sunny.5 mph87%30.04 "HgN/A
5:50 am45 °FPartly sunny.5 mph87%30.04 "HgN/A
5:20 am45 °FPassing clouds.7 mph87%30.04 "HgN/A
4:50 am45 °FPassing clouds.7 mph93%30.04 "HgN/A
4:20 am46 °FScattered showers. Passing clouds.8 mph87%30.04 "HgN/A
3:50 am48 °FScattered showers. Passing clouds.8 mph87%30.04 "HgN/A
3:20 am48 °FPassing clouds.8 mph87%30.04 "HgN/A
Weather by CustomWeather, © 2017

See weather overviewHow to use our weather pages